Time,TemperatureF,DewpointF,PressureIn,WindDirection,WindDirectionDegrees,WindSpeedMPH,WindSpeedGustMPH,Humidity,HourlyPrecipIn,Conditions,Clouds,dailyrainin,SoftwareType,DateUTC
2013-02-02 00:00:00,48.6,28.2,30.57,East,94,4.0,4.0,45,0.00,,,0.00,Wunderground v.1.15,2013-02-02 08:00:00,
2013-02-02 00:10:00,49.1,28.1,30.57,East,94,4.0,4.0,44,0.00,,,0.00,Wunderground v.1.15,2013-02-02 08:10:00,
2013-02-02 00:15:00,49.4,28.4,30.57,East,94,4.0,5.0,44,0.00,,,0.00,Wunderground v.1.15,2013-02-02 08:15:00,
2013-02-02 00:20:00,49.5,27.9,30.57,East,94,4.0,8.0,43,0.00,,,0.00,Wunderground v.1.15,2013-02-02 08:20:00,
2013-02-02 00:30:00,49.5,27.9,30.57,East,94,3.0,8.0,43,0.00,,,0.00,Wunderground v.1.15,2013-02-02 08:30:00,
2013-02-02 00:35:00,49.5,27.9,30.57,East,94,2.0,8.0,43,0.00,,,0.00,Wunderground v.1.15,2013-02-02 08:35:00,
2013-02-02 00:40:00,49.4,27.8,30.57,East,94,2.0,6.0,43,0.00,,,0.00,Wunderground v.1.15,2013-02-02 08:40:00,
2013-02-02 00:50:00,48.7,28.3,30.57,East,94,2.0,2.0,45,0.00,,,0.00,Wunderground v.1.15,2013-02-02 08:50:00,
2013-02-02 00:55:00,48.4,28.0,30.57,East,94,1.0,6.0,45,0.00,,,0.00,Wunderground v.1.15,2013-02-02 08:55:00,
2013-02-02 01:00:00,47.6,28.9,30.57,East,94,1.0,6.0,48,0.00,,,0.00,Wunderground v.1.15,2013-02-02 09:00:00,
2013-02-02 01:10:00,45.8,28.7,30.57,East,94,1.0,5.0,51,0.00,,,0.00,Wunderground v.1.15,2013-02-02 09:10:00,
2013-02-02 01:15:00,45.7,28.6,30.57,East,94,3.0,5.0,51,0.00,,,0.00,Wunderground v.1.15,2013-02-02 09:15:00,
2013-02-02 01:20:00,46.1,28.5,30.56,East,94,4.0,4.0,50,0.00,,,0.00,Wunderground v.1.15,2013-02-02 09:20:00,
2013-02-02 01:30:00,46.9,28.7,30.56,East,94,3.0,5.0,49,0.00,,,0.00,Wunderground v.1.15,2013-02-02 09:30:00,
2013-02-02 01:35:00,46.9,28.7,30.56,East,94,2.0,6.0,49,0.00,,,0.00,Wunderground v.1.15,2013-02-02 09:35:00,
2013-02-02 01:45:00,46.3,29.1,30.56,East,94,1.0,6.0,51,0.00,,,0.00,Wunderground v.1.15,2013-02-02 09:45:00,
2013-02-02 01:50:00,45.8,29.2,30.56,East,94,1.0,6.0,52,0.00,,,0.00,Wunderground v.1.15,2013-02-02 09:50:00,
2013-02-02 02:00:00,45.5,29.3,30.56,East,94,0.0,6.0,53,0.00,,,0.00,Wunderground v.1.15,2013-02-02 10:00:00,
2013-02-02 02:05:00,45.9,28.8,30.56,East,94,1.0,6.0,51,0.00,,,0.00,Wunderground v.1.15,2013-02-02 10:05:00,
2013-02-02 02:15:00,48.0,28.7,30.56,East,94,4.0,5.0,47,0.00,,,0.00,Wunderground v.1.15,2013-02-02 10:15:00,
2013-02-02 02:20:00,48.6,28.2,30.56,East,98,4.0,4.0,45,0.00,,,0.00,Wunderground v.1.15,2013-02-02 10:20:00,
2013-02-02 02:30:00,49.2,28.2,30.56,East,98,3.0,3.0,44,0.00,,,0.00,Wunderground v.1.15,2013-02-02 10:30:00,
2013-02-02 02:35:00,49.4,27.8,30.56,East,98,2.0,6.0,43,0.00,,,0.00,Wunderground v.1.15,2013-02-02 10:35:00,
2013-02-02 02:40:00,49.6,28.0,30.56,East,98,2.0,6.0,43,0.00,,,0.00,Wunderground v.1.15,2013-02-02 10:40:00,
2013-02-02 02:45:00,48.9,27.9,30.56,East,98,2.0,6.0,44,0.00,,,0.00,Wunderground v.1.15,2013-02-02 10:45:00,
2013-02-02 02:55:00,47.7,27.9,30.56,East,98,4.0,6.0,46,0.00,,,0.00,Wunderground v.1.15,2013-02-02 10:55:00,
2013-02-02 03:00:00,48.0,28.2,30.56,East,98,3.0,6.0,46,0.00,,,0.00,Wunderground v.1.15,2013-02-02 11:00:00,
2013-02-02 03:05:00,48.4,28.0,30.56,East,98,3.0,6.0,45,0.00,,,0.00,Wunderground v.1.15,2013-02-02 11:05:00,
2013-02-02 03:15:00,49.5,27.9,30.56,East,98,3.0,6.0,43,0.00,,,0.00,Wunderground v.1.15,2013-02-02 11:15:00,
2013-02-02 03:20:00,49.4,28.4,30.56,East,98,2.0,2.0,44,0.00,,,0.00,Wunderground v.1.15,2013-02-02 11:20:00,
2013-02-02 03:30:00,48.5,28.1,30.56,East,98,1.0,6.0,45,0.00,,,0.00,Wunderground v.1.15,2013-02-02 11:30:00,
2013-02-02 03:35:00,47.9,28.1,30.56,East,98,2.0,6.0,46,0.00,,,0.00,Wunderground v.1.15,2013-02-02 11:35:00,
2013-02-02 03:45:00,49.0,28.6,30.56,East,98,3.0,5.0,45,0.00,,,0.00,Wunderground v.1.15,2013-02-02 11:45:00,
2013-02-02 03:50:00,49.7,28.6,30.56,East,98,4.0,5.0,44,0.00,,,0.00,Wunderground v.1.15,2013-02-02 11:50:00,
2013-02-02 04:00:00,49.9,28.8,30.55,East,89,4.0,4.0,44,0.00,,,0.00,Wunderground v.1.15,2013-02-02 12:00:00,
2013-02-02 04:05:00,49.9,28.8,30.56,East,89,4.0,7.0,44,0.00,,,0.00,Wunderground v.1.15,2013-02-02 12:05:00,
2013-02-02 04:15:00,49.6,29.1,30.56,East,89,3.0,7.0,45,0.00,,,0.00,Wunderground v.1.15,2013-02-02 12:15:00,
2013-02-02 04:20:00,49.6,29.1,30.56,East,89,3.0,7.0,45,0.00,,,0.00,Wunderground v.1.15,2013-02-02 12:20:00,
2013-02-02 04:30:00,49.5,29.6,30.55,East,89,3.0,7.0,46,0.00,,,0.00,Wunderground v.1.15,2013-02-02 12:30:00,
2013-02-02 04:35:00,49.2,29.3,30.56,East,89,4.0,7.0,46,0.00,,,0.00,Wunderground v.1.15,2013-02-02 12:35:00,
2013-02-02 04:40:00,49.1,29.2,30.55,East,89,4.0,6.0,46,0.00,,,0.00,Wunderground v.1.15,2013-02-02 12:40:00,
2013-02-02 04:45:00,49.2,29.3,30.56,East,89,4.0,6.0,46,0.00,,,0.00,Wunderground v.1.15,2013-02-02 12:45:00,
2013-02-02 04:50:00,49.3,29.4,30.55,East,89,4.0,4.0,46,0.00,,,0.00,Wunderground v.1.15,2013-02-02 12:50:00,
2013-02-02 05:00:00,49.5,29.6,30.56,East,89,3.0,6.0,46,0.00,,,0.00,Wunderground v.1.15,2013-02-02 13:00:00,
2013-02-02 05:05:00,49.6,29.6,30.56,East,89,3.0,6.0,46,0.00,,,0.00,Wunderground v.1.15,2013-02-02 13:05:00,
2013-02-02 05:15:00,49.4,29.5,30.56,East,89,1.0,6.0,46,0.00,,,0.00,Wunderground v.1.15,2013-02-02 13:15:00,
2013-02-02 05:20:00,49.5,29.6,30.56,East,89,0.0,6.0,46,0.00,,,0.00,Wunderground v.1.15,2013-02-02 13:20:00,
2013-02-02 05:25:00,49.7,29.7,30.56,East,89,0.0,6.0,46,0.00,,,0.00,Wunderground v.1.15,2013-02-02 13:25:00,
2013-02-02 05:35:00,49.3,30.4,30.56,East,89,1.0,6.0,48,0.00,,,0.00,Wunderground v.1.15,2013-02-02 13:35:00,
2013-02-02 05:45:00,48.9,30.1,30.55,East,89,2.0,5.0,48,0.00,,,0.00,Wunderground v.1.15,2013-02-02 13:45:00,
2013-02-02 05:50:00,49.2,30.3,30.56,East,89,3.0,5.0,48,0.00,,,0.00,Wunderground v.1.15,2013-02-02 13:50:00,
2013-02-02 06:00:00,50.2,30.2,30.56,East,89,4.0,5.0,46,0.00,,,0.00,Wunderground v.1.15,2013-02-02 14:00:00,
2013-02-02 06:05:00,50.5,29.9,30.56,East,89,4.0,7.0,45,0.00,,,0.00,Wunderground v.1.15,2013-02-02 14:05:00,
2013-02-02 06:15:00,50.3,30.3,30.56,East,89,1.0,4.0,46,0.00,,,0.00,Wunderground v.1.15,2013-02-02 14:15:00,
2013-02-02 06:25:00,50.3,30.3,30.56,East,89,3.0,7.0,46,0.00,,,0.00,Wunderground v.1.15,2013-02-02 14:25:00,
2013-02-02 06:30:00,50.5,30.5,30.57,East,89,2.0,2.0,46,0.00,,,0.00,Wunderground v.1.15,2013-02-02 14:30:00,
2013-02-02 06:35:00,50.3,30.3,30.57,East,89,2.0,3.0,46,0.00,,,0.00,Wunderground v.1.15,2013-02-02 14:35:00,
2013-02-02 06:45:00,50.4,30.4,30.57,East,89,1.0,5.0,46,0.00,,,0.00,Wunderground v.1.15,2013-02-02 14:45:00,
2013-02-02 06:50:00,49.9,30.5,30.57,East,89,1.0,1.0,47,0.00,,,0.00,Wunderground v.1.15,2013-02-02 14:50:00,
2013-02-02 07:00:00,49.6,30.7,30.58,East,89,1.0,5.0,48,0.00,,,0.00,Wunderground v.1.15,2013-02-02 15:00:00,
2013-02-02 07:05:00,49.8,30.4,30.58,East,89,2.0,5.0,47,0.00,,,0.00,Wunderground v.1.15,2013-02-02 15:05:00,
2013-02-02 07:10:00,49.8,30.4,30.58,East,89,2.0,2.0,47,0.00,,,0.00,Wunderground v.1.15,2013-02-02 15:10:00,
2013-02-02 07:15:00,49.5,30.6,30.58,East,89,1.0,5.0,48,0.00,,,0.00,Wunderground v.1.15,2013-02-02 15:15:00,
2013-02-02 07:20:00,49.4,30.5,30.58,East,89,1.0,1.0,48,0.00,,,0.00,Wunderground v.1.15,2013-02-02 15:20:00,
2013-02-02 07:30:00,49.6,30.7,30.58,East,89,0.0,5.0,48,0.00,,,0.00,Wunderground v.1.15,2013-02-02 15:30:00,
2013-02-02 07:35:00,49.9,30.5,30.58,East,89,0.0,5.0,47,0.00,,,0.00,Wunderground v.1.15,2013-02-02 15:35:00,
2013-02-02 07:45:00,50.5,31.0,30.58,East,89,0.0,5.0,47,0.00,,,0.00,Wunderground v.1.15,2013-02-02 15:45:00,
2013-02-02 07:50:00,50.7,30.7,30.58,East,89,0.0,5.0,46,0.00,,,0.00,Wunderground v.1.15,2013-02-02 15:50:00,
2013-02-02 08:00:00,51.1,31.0,30.59,East,89,0.0,5.0,46,0.00,,,0.00,Wunderground v.1.15,2013-02-02 16:00:00,
2013-02-02 08:05:00,51.2,31.1,30.58,East,89,0.0,5.0,46,0.00,,,0.00,Wunderground v.1.15,2013-02-02 16:05:00,
2013-02-02 08:15:00,51.5,31.9,30.59,East,89,0.0,3.0,47,0.00,,,0.00,Wunderground v.1.15,2013-02-02 16:15:00,
2013-02-02 08:20:00,51.7,31.6,30.59,East,89,0.0,3.0,46,0.00,,,0.00,Wunderground v.1.15,2013-02-02 16:20:00,
2013-02-02 08:30:00,52.3,32.1,30.59,East,89,0.0,3.0,46,0.00,,,0.00,Wunderground v.1.15,2013-02-02 16:30:00,
2013-02-02 08:35:00,52.6,32.4,30.59,East,89,0.0,3.0,46,0.00,,,0.00,Wunderground v.1.15,2013-02-02 16:35:00,
2013-02-02 08:45:00,53.0,32.2,30.59,East,89,0.0,0.0,45,0.00,,,0.00,Wunderground v.1.15,2013-02-02 16:45:00,
2013-02-02 08:50:00,53.3,32.5,30.59,East,89,0.0,0.0,45,0.00,,,0.00,Wunderground v.1.15,2013-02-02 16:50:00,
2013-02-02 09:00:00,54.0,30.8,30.60,East,89,0.0,0.0,41,0.00,,,0.00,Wunderground v.1.15,2013-02-02 17:00:00,
2013-02-02 09:05:00,54.5,31.3,30.60,East,89,0.0,0.0,41,0.00,,,0.00,Wunderground v.1.15,2013-02-02 17:05:00,
2013-02-02 09:15:00,55.3,30.1,30.60,East,89,0.0,0.0,38,0.00,,,0.00,Wunderground v.1.15,2013-02-02 17:15:00,
2013-02-02 09:20:00,55.5,29.6,30.60,East,89,0.0,0.0,37,0.00,,,0.00,Wunderground v.1.15,2013-02-02 17:20:00,
2013-02-02 09:25:00,55.7,29.1,30.60,East,89,0.0,0.0,36,0.00,,,0.00,Wunderground v.1.15,2013-02-02 17:25:00,
2013-02-02 09:30:00,55.8,29.2,30.60,East,89,0.0,0.0,36,0.00,,,0.00,Wunderground v.1.15,2013-02-02 17:30:00,
2013-02-02 09:40:00,55.9,29.3,30.60,East,84,1.0,1.0,36,0.00,,,0.00,Wunderground v.1.15,2013-02-02 17:40:00,
2013-02-02 09:45:00,56.1,29.5,30.60,North,2,1.0,5.0,36,0.00,,,0.00,Wunderground v.1.15,2013-02-02 17:45:00,
2013-02-02 09:50:00,56.2,28.9,30.60,North,357,1.0,1.0,35,0.00,,,0.00,Wunderground v.1.15,2013-02-02 17:50:00,
2013-02-02 10:00:00,56.5,29.8,30.60,North,357,0.0,3.0,36,0.00,,,0.00,Wunderground v.1.15,2013-02-02 18:00:00,
2013-02-02 10:05:00,56.6,29.9,30.60,North,357,1.0,5.0,36,0.00,,,0.00,Wunderground v.1.15,2013-02-02 18:05:00,
2013-02-02 10:15:00,56.8,29.4,30.60,NNW,340,1.0,5.0,35,0.00,,,0.00,Wunderground v.1.15,2013-02-02 18:15:00,
2013-02-02 10:20:00,56.8,29.4,30.60,NNW,340,2.0,2.0,35,0.00,,,0.00,Wunderground v.1.15,2013-02-02 18:20:00,
2013-02-02 10:30:00,57.1,29.0,30.59,NNW,340,2.0,2.0,34,0.00,,,0.00,Wunderground v.1.15,2013-02-02 18:30:00,
2013-02-02 10:35:00,57.2,29.1,30.59,NNW,339,2.0,3.0,34,0.00,,,0.00,Wunderground v.1.15,2013-02-02 18:35:00,
2013-02-02 10:45:00,57.5,29.3,30.59,NNW,331,2.0,6.0,34,0.00,,,0.00,Wunderground v.1.15,2013-02-02 18:45:00,
2013-02-02 10:50:00,57.7,29.5,30.58,NNW,333,2.0,2.0,34,0.00,,,0.00,Wunderground v.1.15,2013-02-02 18:50:00,
2013-02-02 11:00:00,58.0,29.0,30.58,NW,318,2.0,6.0,33,0.00,,,0.00,Wunderground v.1.15,2013-02-02 19:00:00,
2013-02-02 11:05:00,57.9,28.9,30.58,NW,319,2.0,7.0,33,0.00,,,0.00,Wunderground v.1.15,2013-02-02 19:05:00,
2013-02-02 11:15:00,58.7,28.9,30.58,NNW,340,1.0,7.0,32,0.00,,,0.00,Wunderground v.1.15,2013-02-02 19:15:00,
2013-02-02 11:20:00,59.0,28.4,30.58,NNW,348,1.0,7.0,31,0.00,,,0.00,Wunderground v.1.15,2013-02-02 19:20:00,
2013-02-02 11:30:00,58.8,26.6,30.58,NNW,337,4.0,4.0,29,0.00,,,0.00,Wunderground v.1.15,2013-02-02 19:30:00,
2013-02-02 11:35:00,59.0,26.8,30.57,NNW,338,4.0,9.0,29,0.00,,,0.00,Wunderground v.1.15,2013-02-02 19:35:00,
2013-02-02 11:45:00,59.6,26.4,30.57,NNW,329,4.0,9.0,28,0.00,,,0.00,Wunderground v.1.15,2013-02-02 19:45:00,
2013-02-02 11:50:00,59.5,26.3,30.56,NNW,337,5.0,5.0,28,0.00,,,0.00,Wunderground v.1.15,2013-02-02 19:50:00,
2013-02-02 12:00:00,59.4,25.4,30.56,NNW,341,5.0,9.0,27,0.00,,,0.00,Wunderground v.1.15,2013-02-02 20:00:00,
2013-02-02 12:05:00,59.5,26.3,30.55,NW,323,6.0,11.0,28,0.00,,,0.00,Wunderground v.1.15,2013-02-02 20:05:00,
2013-02-02 12:15:00,59.3,26.2,30.55,NNW,339,6.0,11.0,28,0.00,,,0.00,Wunderground v.1.15,2013-02-02 20:15:00,
2013-02-02 12:20:00,59.4,26.2,30.54,NW,312,5.0,11.0,28,0.00,,,0.00,Wunderground v.1.15,2013-02-02 20:20:00,
2013-02-02 12:25:00,59.6,25.5,30.54,NNW,329,4.0,11.0,27,0.00,,,0.00,Wunderground v.1.15,2013-02-02 20:25:00,
2013-02-02 12:30:00,59.8,25.7,30.54,NW,321,5.0,11.0,27,0.00,,,0.00,Wunderground v.1.15,2013-02-02 20:30:00,
2013-02-02 12:35:00,59.8,25.7,30.54,North,1,5.0,11.0,27,0.00,,,0.00,Wunderground v.1.15,2013-02-02 20:35:00,
2013-02-02 12:45:00,60.3,26.1,30.54,WNW,294,5.0,10.0,27,0.00,,,0.00,Wunderground v.1.15,2013-02-02 20:45:00,
2013-02-02 12:50:00,60.4,26.2,30.53,WNW,298,5.0,10.0,27,0.00,,,0.00,Wunderground v.1.15,2013-02-02 20:50:00,
2013-02-02 13:00:00,60.8,25.7,30.53,NW,314,6.0,10.0,26,0.00,,,0.00,Wunderground v.1.15,2013-02-02 21:00:00,
2013-02-02 13:05:00,60.3,26.1,30.53,NNW,343,6.0,10.0,27,0.00,,,0.00,Wunderground v.1.15,2013-02-02 21:05:00,
2013-02-02 13:10:00,60.3,26.1,30.53,NNW,327,6.0,6.0,27,0.00,,,0.00,Wunderground v.1.15,2013-02-02 21:10:00,
2013-02-02 13:20:00,60.5,26.3,30.52,North,358,6.0,10.0,27,0.00,,,0.00,Wunderground v.1.15,2013-02-02 21:20:00,
2013-02-02 13:30:00,61.0,26.7,30.52,NNW,345,4.0,10.0,27,0.00,,,0.00,Wunderground v.1.15,2013-02-02 21:30:00,
2013-02-02 13:35:00,61.0,25.8,30.52,NNW,332,5.0,11.0,26,0.00,,,0.00,Wunderground v.1.15,2013-02-02 21:35:00,
2013-02-02 13:45:00,60.9,26.7,30.51,North,357,6.0,11.0,27,0.00,,,0.00,Wunderground v.1.15,2013-02-02 21:45:00,
2013-02-02 13:50:00,60.7,25.6,30.51,NNW,338,5.0,5.0,26,0.00,,,0.00,Wunderground v.1.15,2013-02-02 21:50:00,
2013-02-02 14:00:00,61.1,26.8,30.51,North,360,5.0,5.0,27,0.00,,,0.00,Wunderground v.1.15,2013-02-02 22:00:00,
2013-02-02 14:05:00,61.2,26.9,30.51,North,358,5.0,16.0,27,0.00,,,0.00,Wunderground v.1.15,2013-02-02 22:05:00,
2013-02-02 14:15:00,60.7,26.5,30.50,NW,325,5.0,6.0,27,0.00,,,0.00,Wunderground v.1.15,2013-02-02 22:15:00,
2013-02-02 14:20:00,60.5,26.3,30.51,NNW,340,5.0,5.0,27,0.00,,,0.00,Wunderground v.1.15,2013-02-02 22:20:00,
2013-02-02 14:30:00,60.6,26.4,30.50,NNW,345,4.0,16.0,27,0.00,,,0.00,Wunderground v.1.15,2013-02-02 22:30:00,
2013-02-02 14:35:00,60.8,25.7,30.50,NNW,335,5.0,16.0,26,0.00,,,0.00,Wunderground v.1.15,2013-02-02 22:35:00,
2013-02-02 14:45:00,60.9,25.7,30.50,NNW,338,5.0,10.0,26,0.00,,,0.00,Wunderground v.1.15,2013-02-02 22:45:00,
2013-02-02 14:50:00,60.8,25.7,30.50,North,357,5.0,10.0,26,0.00,,,0.00,Wunderground v.1.15,2013-02-02 22:50:00,
2013-02-02 15:00:00,60.4,25.3,30.50,NW,325,4.0,10.0,26,0.00,,,0.00,Wunderground v.1.15,2013-02-02 23:00:00,
2013-02-02 15:05:00,60.2,25.1,30.50,North,351,5.0,10.0,26,0.00,,,0.00,Wunderground v.1.15,2013-02-02 23:05:00,
2013-02-02 15:15:00,60.3,26.1,30.51,NNW,346,4.0,6.0,27,0.00,,,0.00,Wunderground v.1.15,2013-02-02 23:15:00,
2013-02-02 15:20:00,60.2,26.1,30.50,NNW,335,4.0,10.0,27,0.00,,,0.00,Wunderground v.1.15,2013-02-02 23:20:00,
2013-02-02 15:30:00,60.1,26.0,30.50,North,349,5.0,10.0,27,0.00,,,0.00,Wunderground v.1.15,2013-02-02 23:30:00,
2013-02-02 15:35:00,60.0,25.9,30.50,North,354,4.0,10.0,27,0.00,,,0.00,Wunderground v.1.15,2013-02-02 23:35:00,
2013-02-02 15:45:00,60.0,25.9,30.50,NNW,341,4.0,7.0,27,0.00,,,0.00,Wunderground v.1.15,2013-02-02 23:45:00,
2013-02-02 15:50:00,59.9,25.8,30.50,NNW,348,4.0,4.0,27,0.00,,,0.00,Wunderground v.1.15,2013-02-02 23:50:00,
2013-02-02 16:00:00,60.0,26.8,30.50,NNW,343,4.0,7.0,28,0.00,,,0.00,Wunderground v.1.15,2013-02-03 00:00:00,
2013-02-02 16:05:00,59.8,26.6,30.50,NNW,346,4.0,7.0,28,0.00,,,0.00,Wunderground v.1.15,2013-02-03 00:05:00,
2013-02-02 16:10:00,59.8,26.6,30.51,NNW,346,4.0,7.0,28,0.00,,,0.00,Wunderground v.1.15,2013-02-03 00:10:00,
2013-02-02 16:15:00,59.7,26.5,30.51,NNW,348,3.0,7.0,28,0.00,,,0.00,Wunderground v.1.15,2013-02-03 00:15:00,
2013-02-02 16:20:00,59.6,27.3,30.51,NNW,346,4.0,4.0,29,0.00,,,0.00,Wunderground v.1.15,2013-02-03 00:20:00,
2013-02-02 16:30:00,59.4,27.1,30.50,NNW,347,3.0,7.0,29,0.00,,,0.00,Wunderground v.1.15,2013-02-03 00:30:00,
2013-02-02 16:35:00,59.3,27.0,30.50,NNW,347,3.0,7.0,29,0.00,,,0.00,Wunderground v.1.15,2013-02-03 00:35:00,
2013-02-02 16:45:00,59.0,26.8,30.50,NNW,347,1.0,6.0,29,0.00,,,0.00,Wunderground v.1.15,2013-02-03 00:45:00,
2013-02-02 16:50:00,58.9,26.7,30.50,NNW,347,2.0,2.0,29,0.00,,,0.00,Wunderground v.1.15,2013-02-03 00:50:00,
2013-02-02 17:00:00,58.7,27.3,30.50,NNW,347,1.0,1.0,30,0.00,,,0.00,Wunderground v.1.15,2013-02-03 01:00:00,
2013-02-02 17:05:00,58.6,27.2,30.51,NNW,347,0.0,4.0,30,0.00,,,0.00,Wunderground v.1.15,2013-02-03 01:05:00,
2013-02-02 17:10:00,58.5,27.1,30.51,NNW,347,0.0,4.0,30,0.00,,,0.00,Wunderground v.1.15,2013-02-03 01:10:00,
2013-02-02 17:20:00,58.3,27.8,30.50,NNW,347,0.0,4.0,31,0.00,,,0.00,Wunderground v.1.15,2013-02-03 01:20:00,
2013-02-02 17:30:00,58.1,27.6,30.51,NNW,347,0.0,4.0,31,0.00,,,0.00,Wunderground v.1.15,2013-02-03 01:30:00,
2013-02-02 17:35:00,58.0,27.5,30.51,NNW,347,0.0,4.0,31,0.00,,,0.00,Wunderground v.1.15,2013-02-03 01:35:00,
2013-02-02 17:45:00,57.9,26.6,30.51,NNW,347,0.0,0.0,30,0.00,,,0.00,Wunderground v.1.15,2013-02-03 01:45:00,
2013-02-02 17:50:00,57.9,26.6,30.51,NNW,347,0.0,0.0,30,0.00,,,0.00,Wunderground v.1.15,2013-02-03 01:50:00,
2013-02-02 18:00:00,57.7,26.4,30.52,NNW,347,0.0,0.0,30,0.00,,,0.00,Wunderground v.1.15,2013-02-03 02:00:00,
2013-02-02 18:05:00,57.6,26.4,30.52,NNW,347,0.0,0.0,30,0.00,,,0.00,Wunderground v.1.15,2013-02-03 02:05:00,
2013-02-02 18:15:00,57.4,27.0,30.51,NNW,347,0.0,0.0,31,0.00,,,0.00,Wunderground v.1.15,2013-02-03 02:15:00,
2013-02-02 18:25:00,56.9,27.3,30.50,NNW,347,0.0,0.0,32,0.00,,,0.00,Wunderground v.1.15,2013-02-03 02:25:00,
2013-02-02 18:30:00,56.7,27.9,30.51,NNW,347,0.0,0.0,33,0.00,,,0.00,Wunderground v.1.15,2013-02-03 02:30:00,
2013-02-02 18:35:00,56.4,28.3,30.52,NNW,347,0.0,3.0,34,0.00,,,0.00,Wunderground v.1.15,2013-02-03 02:35:00,
2013-02-02 18:45:00,55.8,29.2,30.51,NNW,347,0.0,3.0,36,0.00,,,0.00,Wunderground v.1.15,2013-02-03 02:45:00,
2013-02-02 18:50:00,55.6,28.4,30.51,NNW,347,0.0,3.0,35,0.00,,,0.00,Wunderground v.1.15,2013-02-03 02:50:00,
2013-02-02 19:00:00,55.8,28.5,30.52,NNW,347,0.0,3.0,35,0.00,,,0.00,Wunderground v.1.15,2013-02-03 03:00:00,
2013-02-02 19:05:00,55.7,28.4,30.52,NNW,347,0.0,3.0,35,0.00,,,0.00,Wunderground v.1.15,2013-02-03 03:05:00,
2013-02-02 19:15:00,55.4,28.2,30.51,ENE,58,3.0,4.0,35,0.00,,,0.00,Wunderground v.1.15,2013-02-03 03:15:00,
2013-02-02 19:20:00,55.7,27.0,30.52,ENE,58,3.0,3.0,33,0.00,,,0.00,Wunderground v.1.15,2013-02-03 03:20:00,
2013-02-02 19:25:00,55.8,27.1,30.52,ENE,58,2.0,3.0,33,0.00,,,0.00,Wunderground v.1.15,2013-02-03 03:25:00,
2013-02-02 19:35:00,55.9,26.4,30.52,ENE,58,2.0,5.0,32,0.00,,,0.00,Wunderground v.1.15,2013-02-03 03:35:00,
2013-02-02 19:45:00,56.1,25.8,30.52,ENE,58,3.0,5.0,31,0.00,,,0.00,Wunderground v.1.15,2013-02-03 03:45:00,
2013-02-02 19:50:00,56.3,26.0,30.52,ENE,58,1.0,1.0,31,0.00,,,0.00,Wunderground v.1.15,2013-02-03 03:50:00,
2013-02-02 20:00:00,56.2,25.9,30.52,ENE,58,0.0,5.0,31,0.00,,,0.00,Wunderground v.1.15,2013-02-03 04:00:00,
2013-02-02 20:05:00,55.9,26.4,30.53,ENE,58,0.0,5.0,32,0.00,,,0.00,Wunderground v.1.15,2013-02-03 04:05:00,
2013-02-02 20:15:00,55.5,26.1,30.52,ENE,58,1.0,5.0,32,0.00,,,0.00,Wunderground v.1.15,2013-02-03 04:15:00,
2013-02-02 20:20:00,55.6,26.2,30.52,ENE,58,2.0,5.0,32,0.00,,,0.00,Wunderground v.1.15,2013-02-03 04:20:00,
2013-02-02 20:25:00,55.8,25.6,30.52,ENE,58,3.0,5.0,31,0.00,,,0.00,Wunderground v.1.15,2013-02-03 04:25:00,
2013-02-02 20:35:00,55.9,25.7,30.52,ENE,58,0.0,5.0,31,0.00,,,0.00,Wunderground v.1.15,2013-02-03 04:35:00,
2013-02-02 20:40:00,55.8,25.6,30.51,ENE,58,0.0,5.0,31,0.00,,,0.00,Wunderground v.1.15,2013-02-03 04:40:00,
2013-02-02 20:45:00,55.5,26.8,30.51,ENE,58,1.0,5.0,33,0.00,,,0.00,Wunderground v.1.15,2013-02-03 04:45:00,
2013-02-02 20:55:00,55.3,25.9,30.51,ENE,58,3.0,5.0,32,0.00,,,0.00,Wunderground v.1.15,2013-02-03 04:55:00,
2013-02-02 21:00:00,55.5,26.1,30.51,ENE,58,2.0,2.0,32,0.00,,,0.00,Wunderground v.1.15,2013-02-03 05:00:00,
2013-02-02 21:05:00,55.6,26.2,30.51,ENE,58,1.0,5.0,32,0.00,,,0.00,Wunderground v.1.15,2013-02-03 05:05:00,
2013-02-02 21:10:00,55.5,27.6,30.51,ENE,58,0.0,5.0,34,0.00,,,0.00,Wunderground v.1.15,2013-02-03 05:10:00,
2013-02-02 21:15:00,55.0,26.4,30.51,ENE,72,2.0,5.0,33,0.00,,,0.00,Wunderground v.1.15,2013-02-03 05:15:00,
2013-02-02 21:20:00,55.2,25.8,30.51,ENE,72,4.0,4.0,32,0.00,,,0.00,Wunderground v.1.15,2013-02-03 05:20:00,
2013-02-02 21:30:00,55.8,24.8,30.51,ENE,72,3.0,5.0,30,0.00,,,0.00,Wunderground v.1.15,2013-02-03 05:30:00,
2013-02-02 21:35:00,55.9,25.7,30.51,ENE,72,3.0,7.0,31,0.00,,,0.00,Wunderground v.1.15,2013-02-03 05:35:00,
2013-02-02 21:40:00,55.8,25.6,30.51,ENE,72,2.0,7.0,31,0.00,,,0.00,Wunderground v.1.15,2013-02-03 05:40:00,
2013-02-02 21:45:00,55.7,24.7,30.50,ENE,72,3.0,7.0,30,0.00,,,0.00,Wunderground v.1.15,2013-02-03 05:45:00,
2013-02-02 21:55:00,55.8,24.8,30.50,ENE,72,3.0,7.0,30,0.00,,,0.00,Wunderground v.1.15,2013-02-03 05:55:00,
2013-02-02 22:00:00,55.8,24.8,30.50,ENE,72,3.0,7.0,30,0.00,,,0.00,Wunderground v.1.15,2013-02-03 06:00:00,
2013-02-02 22:05:00,55.7,24.7,30.51,ENE,72,2.0,7.0,30,0.00,,,0.00,Wunderground v.1.15,2013-02-03 06:05:00,
2013-02-02 22:15:00,55.6,25.4,30.51,ENE,72,0.0,5.0,31,0.00,,,0.00,Wunderground v.1.15,2013-02-03 06:15:00,
2013-02-02 22:20:00,55.6,25.4,30.51,ENE,72,0.0,5.0,31,0.00,,,0.00,Wunderground v.1.15,2013-02-03 06:20:00,
2013-02-02 22:30:00,55.4,26.7,30.51,ENE,72,0.0,5.0,33,0.00,,,0.00,Wunderground v.1.15,2013-02-03 06:30:00,
2013-02-02 22:35:00,55.2,29.4,30.51,ENE,72,0.0,5.0,37,0.00,,,0.00,Wunderground v.1.15,2013-02-03 06:35:00,
2013-02-02 22:45:00,54.4,29.9,30.51,ENE,72,0.0,3.0,39,0.00,,,0.00,Wunderground v.1.15,2013-02-03 06:45:00,
2013-02-02 22:50:00,53.8,31.8,30.51,ENE,72,1.0,1.0,43,0.00,,,0.00,Wunderground v.1.15,2013-02-03 06:50:00,
2013-02-02 22:55:00,53.4,34.2,30.51,ENE,72,1.0,2.0,48,0.00,,,0.00,Wunderground v.1.15,2013-02-03 06:55:00,
2013-02-02 23:00:00,52.8,35.6,30.50,ENE,72,1.0,1.0,52,0.00,,,0.00,Wunderground v.1.15,2013-02-03 07:00:00,
2013-02-02 23:05:00,52.4,35.3,30.50,ENE,72,1.0,4.0,52,0.00,,,0.00,Wunderground v.1.15,2013-02-03 07:05:00,
2013-02-02 23:15:00,52.1,36.4,30.50,ENE,72,1.0,4.0,55,0.00,,,0.00,Wunderground v.1.15,2013-02-03 07:15:00,
2013-02-02 23:20:00,52.1,36.9,30.50,ENE,72,3.0,3.0,56,0.00,,,0.00,Wunderground v.1.15,2013-02-03 07:20:00,
2013-02-02 23:30:00,51.9,37.1,30.50,ENE,72,3.0,4.0,57,0.00,,,0.01,Wunderground v.1.15,2013-02-03 07:30:00,
2013-02-02 23:35:00,51.8,36.6,30.50,ENE,72,3.0,6.0,56,0.00,,,0.01,Wunderground v.1.15,2013-02-03 07:35:00,
2013-02-02 23:40:00,51.7,37.4,30.49,ENE,72,3.0,3.0,58,0.00,,,0.01,Wunderground v.1.15,2013-02-03 07:40:00,
2013-02-02 23:50:00,50.5,39.2,30.49,East,84,4.0,7.0,65,0.00,,,0.01,Wunderground v.1.15,2013-02-03 07:50:00,
2013-02-02 23:55:00,50.7,38.1,30.49,East,84,5.0,7.0,62,0.00,,,0.01,Wunderground v.1.15,2013-02-03 07:55:00,